QPF
0.00 0.00 0.00 0.00 0.00 0.00 0.00 0.00 0.00 0.00 0.00 0.00 0.00 0.00 0.00 0.00 0.00 0.00 0.00 0.00 0.00 0.00 0.00 0.00 0.00 0.00 0.00 0.00 0.00 0.00 0.00 0.00 0.00 0.00 0.00 0.00 0.00 0.00 0.00 0.01 0.01 0.00 0.01 0.00 0.01 0.00 0.00
0.00 0.00 0.00 0.00 0.00 0.00 0.00 0.00 0.00 0.00 0.00 0.00 0.00 0.00 0.00 0.00 0.00 0.00 0.00 0.00 0.00 0.00 0.00 0.00 0.00 0.00 0.00 0.00 0.00 0.00 0.00 0.00 0.00 0.00 0.00 0.00 0.00 0.01 0.00 0.00 0.05 0.03 0.04 0.01 0.00 0.00 0.00
0.00 0.00 0.00 0.00 0.00 0.00 0.00 0.00 0.00 0.00 0.00 0.00 0.00 0.00 0.00 0.00 0.00 0.00 0.00 0.00 0.00 0.00 0.00 0.00 0.00 0.00 0.00 0.00 0.00 0.00 0.00 0.00 0.00 0.00 0.00 0.00 0.00 0.00 0.00 0.01 0.03 0.02 0.01 0.01 0.01 0.01 0.01
0.00 0.00 0.00 0.00 0.00 0.00 0.00 0.00 0.00 0.00 0.00 0.00 0.00 0.00 0.00 0.00 0.00 0.00 0.00 0.00 0.00 0.00 0.00 0.00 0.00 0.00 0.00 0.00 0.00 0.00 0.00 0.00 0.00 0.00 0.00 0.00 0.00 0.00 0.00 0.01 0.01 0.00 0.00 0.01 0.02 0.01 0.01
0.00 0.00 0.00 0.00 0.00 0.00 0.00 0.00 0.00 0.00 0.00 0.00 0.00 0.00 0.00 0.00 0.00 0.00 0.00 0.00 0.00 0.00 0.00 0.00 0.00 0.00 0.00 0.00 0.00 0.00 0.00 0.00 0.00 0.00 0.00 0.00 0.00 0.00 0.00 0.00 0.00 0.00 0.00 0.00 0.00 0.00 0.02
0.00 0.00 0.00 0.00 0.00 0.00 0.00 0.00 0.00 0.00 0.00 0.00 0.00 0.00 0.00 0.00 0.00 0.00 0.00 0.00 0.00 0.00 0.00 0.00 0.00 0.00 0.00 0.00 0.00 0.00 0.00 0.00 0.00 0.00 0.00 0.00 0.00 0.00 0.00 0.00 0.00 0.00 0.00 0.00 0.00 0.00 0.02
0.00 0.00 0.00 0.00 0.00 0.00 0.00 0.00 0.00 0.00 0.00 0.00 0.00 0.00 0.00 0.00 0.00 0.00 0.00 0.00 0.00 0.00 0.00 0.00 0.00 0.00 0.00 0.00 0.00 0.00 0.00 0.00 0.00 0.00 0.00 0.00 0.00 0.00 0.00 0.00 0.00 0.00 0.00 0.00 0.00 0.00 0.01
0.00 0.00 0.00 0.00 0.00 0.00 0.00 0.00 0.00 0.00 0.00 0.00 0.00 0.00 0.00 0.00 0.00 0.00 0.00 0.00 0.00 0.00 0.00 0.00 0.00 0.00 0.00 0.00 0.00 0.00 0.00 0.00 0.00 0.00 0.00 0.01 0.00 0.00 0.00 0.00 0.00 0.00 0.02 0.02 0.00 0.00 0.00
0.00 0.00 0.00 0.00 0.00 0.00 0.00 0.00 0.00 0.00 0.00 0.00 0.00 0.00 0.00 0.00 0.00 0.00 0.00 0.00 0.00 0.00 0.00 0.00 0.00 0.00 0.00 0.00 0.00 0.00 0.00 0.00 0.00 0.00 0.00 0.00 0.00 0.00 0.00 0.00 0.00 0.03 0.02 0.01 0.00 0.01 0.01
0.00 0.00 0.00 0.00 0.00 0.00 0.00 0.00 0.00 0.00 0.00 0.00 0.00 0.00 0.00 0.00 0.00 0.00 0.00 0.00 0.00 0.00 0.00 0.00 0.00 0.00 0.00 0.00 0.00 0.00 0.00 0.00 0.00 0.00 0.00 0.00 0.00 0.00 0.00 0.00 0.01 0.00 0.00 0.00 0.02 0.01 0.01
0.00 0.00 0.00 0.00 0.00 0.00 0.00 0.00 0.00 0.00 0.00 0.00 0.00 0.00 0.00 0.00 0.00 0.00 0.00 0.00 0.00 0.00 0.00 0.00 0.00 0.00 0.00 0.00 0.00 0.00 0.00 0.00 0.00 0.00 0.00 0.00 0.00 0.00 0.00 0.00 0.03 0.00 0.00 0.00 0.02 0.00 0.00
0.00 0.00 0.00 0.00 0.00 0.00 0.00 0.00 0.00 0.00 0.00 0.00 0.00 0.00 0.00 0.00 0.00 0.00 0.00 0.00 0.00 0.00 0.00 0.00 0.00 0.00 0.00 0.00 0.00 0.00 0.00 0.00 0.00 0.00 0.00 0.00 0.00 0.00 0.00 0.00 0.00 0.00 0.00 0.00 0.00 0.00 0.00
0.00 0.00 0.00 0.00 0.00 0.00 0.00 0.00 0.00 0.00 0.00 0.00 0.00 0.00 0.00 0.00 0.00 0.00 0.00 0.00 0.00 0.00 0.00 0.00 0.00 0.00 0.00 0.00 0.00 0.00 0.00 0.00 0.00 0.00 0.00 0.00 0.00 0.00 0.00 0.00 0.00 0.00 0.00 0.00 0.00 0.00 0.00
0.00 0.00 0.00 0.00 0.00 0.00 0.00 0.00 0.00 0.00 0.00 0.00 0.00 0.00 0.00 0.00 0.00 0.00 0.00 0.00 0.00 0.00 0.00 0.00 0.00 0.00 0.00 0.00 0.00 0.00 0.00 0.00 0.00 0.00 0.00 0.00 0.00 0.00 0.00 0.00 0.00 0.00 0.00 0.01 0.01 0.00 0.00
0.00 0.00 0.00 0.00 0.00 0.00 0.00 0.00 0.00 0.00 0.00 0.00 0.00 0.00 0.00 0.00 0.00 0.00 0.00 0.00 0.00 0.00 0.00 0.00 0.00 0.00 0.00 0.00 0.00 0.00 0.00 0.00 0.00 0.00 0.00 0.00 0.00 0.00 0.00 0.00 0.00 0.00 0.01 0.01 0.00 0.00 0.00
0.00 0.00 0.00 0.00 0.00 0.00 0.00 0.00 0.00 0.00 0.00 0.00 0.00 0.00 0.00 0.00 0.00 0.00 0.00 0.00 0.00 0.00 0.00 0.00 0.00 0.00 0.00 0.00 0.00 0.00 0.00 0.00 0.00 0.00 0.00 0.00 0.00 0.00 0.00 0.01 0.03 0.03 0.05 0.05 0.01 0.00 0.00
0.00 0.00 0.00 0.00 0.00 0.00 0.00 0.00 0.00 0.00 0.00 0.00 0.00 0.00 0.00 0.00 0.00 0.00 0.00 0.00 0.00 0.00 0.00 0.00 0.00 0.00 0.00 0.00 0.00 0.00 0.00 0.00 0.00 0.00 0.00 0.00 0.00 0.00 0.00 0.02 0.02 0.00 0.01 0.03 0.00 0.00 0.00
0.00 0.00 0.00 0.00 0.00 0.00 0.00 0.00 0.00 0.00 0.00 0.00 0.00 0.00 0.00 0.00 0.00 0.00 0.00 0.00 0.00 0.00 0.00 0.00 0.00 0.00 0.00 0.00 0.00 0.00 0.00 0.00 0.00 0.00 0.00 0.00 0.00 0.00 0.00 0.00 0.00 0.00 0.00 0.02 0.00 0.00 0.00
0.00 0.00 0.00 0.00 0.00 0.00 0.00 0.00 0.00 0.00 0.00 0.00 0.00 0.00 0.00 0.00 0.00 0.00 0.00 0.00 0.00 0.00 0.00 0.00 0.00 0.00 0.00 0.00 0.00 0.00 0.00 0.00 0.00 0.00 0.00 0.00 0.00 0.00 0.00 0.00 0.00 0.00 0.00 0.00 0.00 0.00 0.00
0.00 0.00 0.00 0.00 0.00 0.00 0.00 0.00 0.00 0.00 0.00 0.00 0.00 0.00 0.00 0.00 0.00 0.00 0.00 0.00 0.00 0.00 0.00 0.00 0.00 0.00 0.00 0.00 0.00 0.00 0.00 0.00 0.00 0.00 0.00 0.00 0.00 0.00 0.00 0.00 0.00 0.00 0.00 0.00 0.00 0.00 0.00
0.00 0.00 0.00 0.00 0.00 0.00 0.00 0.00 0.00 0.00 0.00 0.00 0.00 0.00 0.00 0.00 0.00 0.00 0.00 0.00 0.00 0.00 0.00 0.00 0.00 0.00 0.00 0.00 0.00 0.00 0.00 0.00 0.00 0.00 0.00 0.00 0.00 0.00 0.00 0.00 0.00 0.00 0.00 0.00 0.00 0.00 0.00
0.00 0.00 0.00 0.00 0.00 0.00 0.00 0.00 0.00 0.00 0.00 0.00 0.00 0.00 0.00 0.00 0.00 0.00 0.00 0.00 0.00 0.00 0.00 0.00 0.00 0.00 0.00 0.00 0.00 0.00 0.00 0.00 0.00 0.00 0.00 0.00 0.00 0.00 0.00 0.00 0.00 0.00 0.00 0.00 0.02 0.01 0.00
0.00 0.00 0.00 0.00 0.00 0.00 0.00 0.00 0.00 0.00 0.00 0.00 0.00 0.00 0.00 0.00 0.00 0.00 0.00 0.00 0.00 0.00 0.00 0.00 0.00 0.00 0.00 0.00 0.00 0.00 0.00 0.00 0.00 0.00 0.00 0.00 0.00 0.00 0.00 0.00 0.00 0.00 0.00 0.00 0.00 0.00 0.01
0.00 0.00 0.00 0.00 0.00 0.00 0.00 0.00 0.00 0.00 0.00 0.00 0.00 0.00 0.00 0.00 0.00 0.00 0.00 0.00 0.00 0.00 0.00 0.00 0.00 0.00 0.00 0.00 0.00 0.00 0.00 0.00 0.00 0.00 0.00 0.00 0.00 0.00 0.00 0.00 0.00 0.00 0.00 0.00 0.00 0.00 0.01
0.00 0.00 0.00 0.00 0.00 0.00 0.00 0.00 0.00 0.00 0.00 0.00 0.00 0.00 0.00 0.00 0.00 0.00 0.00 0.00 0.00 0.00 0.00 0.00 0.00 0.00 0.00 0.00 0.00 0.00 0.00 0.00 0.00 0.00 0.00 0.00 0.00 0.00 0.00 0.00 0.00 0.00 0.00 0.01 0.03 0.03 0.00
0.00 0.00 0.00 0.00 0.00 0.00 0.00 0.00 0.00 0.00 0.00 0.00 0.00 0.00 0.00 0.00 0.00 0.00 0.00 0.00 0.00 0.00 0.00 0.00 0.00 0.00 0.00 0.00 0.00 0.00 0.00 0.00 0.00 0.00 0.00 0.00 0.00 0.00 0.00 0.00 0.00 0.00 0.00 0.01 0.04 0.03 0.00
0.00 0.00 0.00 0.00 0.00 0.00 0.00 0.00 0.00 0.00 0.00 0.00 0.00 0.00 0.00 0.00 0.00 0.00 0.00 0.00 0.00 0.00 0.00 0.00 0.00 0.00 0.00 0.00 0.00 0.00 0.00 0.00 0.00 0.00 0.00 0.00 0.00 0.00 0.00 0.00 0.00 0.00 0.00 0.01 0.03 0.00 0.00
0.00 0.00 0.00 0.00 0.00 0.00 0.00 0.00 0.00 0.00 0.00 0.00 0.00 0.00 0.00 0.00 0.00 0.00 0.00 0.00 0.00 0.00 0.00 0.00 0.00 0.00 0.00 0.00 0.00 0.00 0.00 0.00 0.00 0.00 0.00 0.00 0.00 0.00 0.00 0.00 0.00 0.00 0.00 0.01 0.02 0.00 0.00
0.00 0.00 0.00 0.00 0.00 0.00 0.00 0.00 0.00 0.00 0.00 0.00 0.00 0.00 0.00 0.00 0.00 0.00 0.00 0.00 0.00 0.00 0.00 0.00 0.00 0.00 0.00 0.00 0.00 0.00 0.00 0.00 0.00 0.00 0.00 0.00 0.00 0.00 0.00 0.00 0.00 0.00 0.00 0.01 0.01 0.04 0.04
MSLP
1020.89 1020.61 1020.36 1020.16 1019.94 1019.74 1019.50 1019.24 1018.94 1018.60 1018.18 1017.85 1017.56 1017.22 1016.87 1016.59 1016.28 1016.00 1015.67 1015.46 1015.31 1015.09 1014.90 1014.70 1014.50 1014.24 1013.93 1012.80 1011.02 1010.28 1010.06 1010.53 1010.77 1010.74 1010.44 1010.30 1010.22 1010.26 1010.37 1010.84 1011.17 1011.65 1012.72 1013.23 1013.44 1013.46 1012.90
1021.10 1020.80 1020.54 1020.24 1020.01 1019.80 1019.51 1019.19 1018.88 1018.60 1018.20 1017.80 1017.45 1017.09 1016.76 1016.49 1016.14 1015.82 1015.52 1015.33 1015.14 1014.91 1014.73 1014.56 1014.39 1014.19 1013.43 1011.74 1010.62 1010.58 1010.49 1010.67 1010.73 1010.70 1010.56 1010.32 1010.32 1010.54 1010.56 1010.93 1011.44 1012.37 1013.05 1013.64 1014.00 1013.93 1013.52
1021.28 1021.03 1020.73 1020.38 1020.08 1019.80 1019.52 1019.16 1018.82 1018.51 1018.15 1017.76 1017.37 1017.00 1016.69 1016.42 1016.04 1015.69 1015.45 1015.24 1015.00 1014.84 1014.58 1014.42 1014.30 1013.97 1012.82 1011.38 1010.72 1010.77 1010.68 1010.79 1010.92 1010.86 1010.61 1010.58 1010.46 1010.43 1010.71 1011.10 1011.91 1012.56 1013.01 1013.81 1014.44 1014.42 1014.02
1021.52 1021.22 1020.85 1020.53 1020.20 1019.89 1019.53 1019.17 1018.78 1018.42 1018.07 1017.69 1017.30 1016.88 1016.54 1016.28 1015.94 1015.53 1015.17 1014.93 1014.60 1014.51 1014.38 1014.30 1014.22 1013.79 1011.80 1010.77 1010.88 1010.93 1010.94 1011.10 1011.13 1010.97 1010.92 1010.84 1010.61 1010.47 1010.66 1011.23 1011.71 1012.34 1013.23 1013.95 1015.00 1014.65 1014.67
1021.74 1021.32 1021.01 1020.65 1020.27 1019.88 1019.52 1019.10 1018.70 1018.36 1018.00 1017.60 1017.21 1016.83 1016.44 1016.12 1015.75 1015.32 1014.98 1014.57 1013.96 1014.13 1014.19 1014.19 1014.06 1013.16 1011.08 1010.74 1010.68 1010.65 1010.63 1010.75 1011.11 1011.04 1011.02 1010.83 1010.81 1010.78 1010.98 1010.80 1011.43 1012.30 1013.07 1014.04 1015.21 1015.53 1014.96
1021.80 1021.49 1021.12 1020.72 1020.32 1019.92 1019.48 1019.06 1018.62 1018.24 1017.86 1017.48 1017.08 1016.67 1016.24 1015.84 1015.56 1015.26 1014.78 1014.35 1014.00 1014.09 1014.12 1013.85 1013.44 1012.79 1010.61 1010.38 1010.22 1010.62 1010.74 1010.68 1010.69 1010.86 1010.74 1010.84 1011.02 1010.86 1010.95 1010.53 1010.67 1011.60 1012.70 1013.91 1014.75 1015.42 1014.97
1022.00 1021.71 1021.32 1020.86 1020.43 1019.98 1019.47 1019.00 1018.55 1018.10 1017.66 1017.22 1016.81 1016.39 1015.97 1015.63 1015.34 1015.22 1014.58 1014.27 1014.19 1013.86 1013.18 1012.67 1012.24 1011.57 1010.55 1010.12 1010.10 1010.40 1010.52 1010.48 1010.58 1010.55 1010.37 1011.02 1010.66 1010.41 1010.34 1010.32 1010.71 1011.14 1012.24 1013.38 1014.64 1015.06 1014.63
1022.22 1021.86 1021.44 1020.97 1020.48 1019.97 1019.44 1018.96 1018.50 1018.00 1017.47 1016.99 1016.58 1016.12 1015.69 1015.36 1015.15 1014.96 1014.72 1013.62 1013.51 1013.31 1012.58 1011.76 1011.49 1011.00 1010.35 1010.16 1009.91 1010.22 1010.39 1010.26 1010.41 1010.34 1010.63 1010.95 1010.48 1010.44 1010.61 1010.74 1010.80 1011.22 1011.93 1013.12 1014.28 1014.80 1015.06
1022.41 1021.99 1021.50 1020.94 1020.38 1019.89 1019.38 1018.94 1018.44 1017.86 1017.34 1016.81 1016.39 1015.92 1015.47 1015.10 1014.88 1014.67 1013.96 1013.24 1013.01 1012.88 1012.30 1011.18 1010.62 1010.15 1009.82 1009.85 1009.51 1009.66 1009.98 1009.92 1010.06 1010.25 1010.28 1010.33 1010.38 1010.49 1010.50 1010.58 1010.91 1011.13 1011.67 1012.73 1013.56 1014.64 1014.98
1022.44 1021.97 1021.48 1020.94 1020.40 1019.86 1019.30 1018.82 1018.30 1017.74 1017.14 1016.59 1016.17 1015.74 1015.32 1014.92 1015.03 1014.23 1013.41 1012.96 1013.05 1013.03 1011.78 1010.91 1009.90 1009.54 1009.72 1009.44 1009.39 1009.38 1009.45 1009.43 1009.76 1010.04 1010.27 1010.24 1010.36 1010.21 1010.29 1010.34 1010.90 1011.06 1011.61 1012.31 1013.30 1013.85 1014.18
1022.54 1022.09 1021.58 1021.04 1020.47 1019.85 1019.24 1018.68 1018.14 1017.53 1016.96 1016.33 1015.87 1015.56 1015.23 1015.01 1014.25 1013.84 1013.40 1012.96 1012.92 1012.61 1011.20 1010.43 1009.40 1009.08 1009.22 1009.28 1009.35 1009.29 1009.29 1009.06 1009.27 1009.68 1010.12 1010.00 1010.04 1010.13 1010.11 1010.06 1010.74 1011.28 1011.62 1012.19 1012.92 1013.44 1013.72
1022.70 1022.21 1021.72 1021.18 1020.53 1019.98 1019.36 1018.64 1018.02 1017.32 1016.69 1016.03 1015.48 1015.26 1015.08 1014.87 1014.38 1013.30 1013.09 1012.83 1012.75 1011.89 1010.87 1009.96 1009.35 1009.08 1008.96 1009.18 1009.22 1009.30 1009.15 1009.15 1009.52 1009.56 1009.84 1009.72 1010.05 1010.03 1009.98 1010.28 1010.50 1011.48 1011.99 1012.44 1012.76 1013.10 1012.90
1022.88 1022.35 1021.84 1021.32 1020.72 1020.08 1019.38 1018.61 1017.91 1017.17 1016.38 1015.61 1015.06 1014.65 1014.86 1014.24 1013.42 1013.01 1012.83 1012.34 1011.95 1011.06 1011.06 1010.20 1009.70 1009.35 1009.27 1009.29 1009.28 1009.23 1009.32 1009.36 1009.42 1009.44 1009.48 1009.64 1009.71 1010.12 1010.26 1010.41 1010.96 1011.21 1011.58 1011.67 1012.00 1012.09 1011.67
1022.97 1022.48 1021.96 1021.43 1020.85 1020.15 1019.39 1018.65 1017.84 1016.96 1016.16 1015.31 1014.68 1014.43 1014.31 1013.74 1013.39 1013.11 1012.40 1012.08 1011.43 1011.10 1010.53 1010.33 1010.07 1009.74 1009.51 1009.68 1009.68 1009.58 1009.55 1009.54 1009.65 1009.65 1009.52 1009.43 1009.61 1009.82 1010.04 1009.89 1009.92 1010.62 1010.80 1010.65 1010.68 1010.85 1011.03
1023.00 1022.58 1022.09 1021.57 1020.98 1020.32 1019.51 1018.67 1017.82 1016.77 1015.93 1015.19 1014.42 1014.19 1013.76 1013.09 1013.26 1013.24 1012.29 1011.60 1011.36 1010.97 1010.57 1010.22 1010.07 1009.92 1009.93 1010.07 1010.02 1009.77 1009.83 1009.66 1009.68 1009.68 1009.64 1009.57 1009.43 1009.74 1009.84 1010.12 1010.25 1010.78 1010.87 1011.00 1010.64 1010.71 1010.27
1023.06 1022.64 1022.19 1021.69 1021.10 1020.42 1019.65 1018.79 1017.94 1016.74 1015.62 1015.05 1014.27 1013.56 1013.18 1012.98 1013.01 1012.56 1011.98 1011.86 1011.49 1011.09 1010.54 1010.30 1010.16 1010.51 1010.26 1010.38 1010.24 1010.00 1010.03 1009.93 1009.78 1009.82 1009.86 1009.95 1009.68 1009.68 1009.86 1010.11 1010.72 1010.34 1010.57 1010.93 1010.53 1009.90 1009.67
1023.01 1022.63 1022.19 1021.67 1021.16 1020.54 1019.84 1019.00 1018.18 1016.98 1015.51 1014.50 1013.97 1013.23 1013.16 1013.02 1012.80 1012.17 1012.00 1011.87 1011.33 1010.77 1010.69 1010.30 1010.37 1010.47 1010.72 1010.78 1010.71 1010.52 1010.47 1010.22 1010.21 1010.09 1010.00 1009.96 1010.06 1010.14 1009.88 1009.77 1009.72 1010.52 1010.22 1010.57 1010.46 1009.94 1009.20
1022.92 1022.51 1022.16 1021.65 1021.14 1020.63 1020.00 1019.27 1018.54 1017.56 1016.04 1014.54 1014.29 1013.36 1012.89 1012.57 1012.68 1013.04 1012.32 1012.06 1011.43 1010.59 1010.35 1010.29 1010.48 1010.74 1011.01 1011.25 1011.06 1010.82 1010.58 1010.39 1010.44 1010.27 1010.04 1010.31 1010.00 1009.56 1009.82 1009.94 1010.02 1009.64 1009.32 1009.62 1009.64 1009.65 1009.69
1022.86 1022.42 1022.02 1021.59 1021.16 1020.64 1020.11 1019.50 1018.89 1018.24 1017.70 1017.05 1015.34 1014.12 1013.01 1012.53 1012.63 1012.70 1012.39 1011.84 1011.24 1010.54 1010.44 1010.38 1010.71 1011.10 1011.52 1011.56 1011.68 1011.27 1010.92 1010.74 1010.54 1010.34 1010.42 1010.35 1010.19 1009.82 1009.72 1009.84 1009.80 1009.57 1009.75 1009.92 1009.84 1009.73 1009.40
1022.72 1022.30 1021.88 1021.52 1021.06 1020.60 1020.15 1019.65 1019.04 1018.50 1018.08 1017.60 1016.06 1014.56 1013.39 1013.00 1013.12 1012.66 1012.33 1011.65 1011.02 1010.70 1010.60 1010.69 1010.97 1011.24 1011.54 1011.72 1011.92 1011.64 1011.19 1011.00 1010.87 1010.94 1010.80 1010.70 1010.64 1010.20 1009.95 1009.83 1009.93 1009.78 1009.92 1010.12 1009.84 1009.60 1009.27
1022.50 1022.11 1021.73 1021.36 1020.93 1020.54 1020.10 1019.74 1019.18 1018.53 1018.01 1017.78 1016.36 1015.23 1014.68 1013.62 1013.28 1012.78 1012.52 1011.92 1011.08 1010.66 1010.70 1010.82 1011.02 1011.22 1011.45 1011.79 1011.90 1011.80 1011.70 1011.44 1011.32 1011.32 1011.22 1011.03 1010.83 1010.92 1010.48 1010.50 1010.44 1010.14 1010.14 1010.20 1010.21 1010.45 1010.42
1022.22 1021.92 1021.53 1021.13 1020.78 1020.48 1020.13 1019.76 1019.34 1018.58 1017.80 1017.48 1016.82 1016.06 1015.21 1014.22 1013.52 1012.87 1012.60 1011.65 1011.00 1010.71 1010.66 1010.65 1010.83 1011.34 1011.72 1011.97 1012.17 1012.15 1012.20 1012.19 1012.00 1011.78 1011.72 1011.74 1011.46 1011.42 1010.90 1010.83 1010.64 1010.50 1010.47 1010.40 1010.69 1011.11 1011.30
1021.86 1021.64 1021.32 1020.94 1020.54 1020.29 1020.02 1019.77 1019.52 1018.97 1018.04 1017.79 1017.58 1016.94 1016.08 1014.42 1013.51 1012.69 1011.93 1011.48 1011.00 1010.79 1010.77 1010.59 1010.74 1011.39 1011.96 1012.24 1012.43 1012.92 1012.90 1013.16 1013.02 1012.91 1012.58 1012.45 1012.06 1011.81 1011.35 1011.56 1011.10 1010.89 1010.89 1010.69 1010.92 1011.53 1011.68
1021.58 1021.24 1020.98 1020.66 1020.32 1020.06 1019.92 1019.72 1019.55 1019.39 1019.25 1019.30 1018.66 1017.93 1016.40 1014.49 1013.65 1012.45 1011.74 1011.45 1011.11 1010.90 1010.69 1010.85 1011.17 1011.52 1012.52 1012.75 1013.12 1013.30 1013.38 1013.56 1013.56 1013.77 1013.71 1013.18 1012.99 1012.68 1011.96 1011.97 1011.44 1011.42 1011.85 1011.74 1011.42 1011.88 1012.32
1021.12 1020.78 1020.59 1020.28 1020.04 1019.78 1019.70 1019.56 1019.45 1019.37 1019.34 1019.12 1019.03 1018.47 1017.08 1015.20 1013.85 1012.62 1011.88 1011.35 1010.94 1010.93 1010.89 1010.86 1011.19 1011.42 1012.29 1012.54 1013.03 1013.42 1013.48 1013.50 1013.76 1014.20 1014.19 1014.02 1013.62 1013.11 1012.84 1012.30 1012.15 1011.74 1011.73 1011.82 1011.60 1012.28 1012.57
1020.58 1020.37 1020.20 1019.94 1019.70 1019.46 1019.45 1019.31 1019.23 1019.19 1019.11 1019.08 1018.90 1018.82 1017.78 1016.12 1013.54 1012.80 1012.07 1011.44 1011.09 1010.97 1011.10 1011.35 1011.95 1012.18 1012.35 1012.72 1013.21 1013.48 1013.60 1013.88 1013.90 1014.23 1014.63 1014.48 1014.24 1013.65 1013.76 1012.94 1012.09 1012.06 1012.46 1012.67 1012.69 1012.26 1012.49
1020.14 1019.88 1019.81 1019.55 1019.31 1019.12 1019.12 1019.08 1019.02 1018.91 1018.85 1018.84 1018.45 1018.71 1017.99 1016.35 1013.89 1013.25 1012.40 1011.80 1011.48 1011.20 1011.02 1011.52 1012.06 1012.60 1012.69 1012.72 1013.12 1013.67 1014.13 1014.64 1014.37 1014.21 1014.28 1014.31 1014.26 1013.94 1013.66 1013.22 1012.52 1012.62 1012.89 1013.24 1013.19 1013.16 1012.53
1019.66 1019.40 1019.33 1019.09 1018.92 1018.74 1018.85 1018.86 1018.81 1018.70 1018.62 1018.55 1018.16 1018.34 1017.91 1016.63 1014.39 1013.42 1012.64 1012.10 1011.72 1011.35 1011.02 1011.63 1012.02 1012.22 1012.67 1012.80 1013.25 1013.84 1014.22 1014.56 1014.58 1014.39 1014.26 1014.08 1014.03 1013.91 1013.98 1013.48 1013.14 1013.23 1013.56 1013.38 1013.32 1013.09 1013.22
1019.14 1018.95 1018.82 1018.68 1018.52 1018.50 1018.60 1018.60 1018.51 1018.42 1018.36 1018.46 1018.30 1017.95 1018.03 1017.44 1014.80 1013.79 1012.85 1012.29 1011.95 1011.37 1011.44 1011.68 1011.59 1011.61 1012.07 1012.73 1013.68 1014.01 1014.18 1014.66 1014.27 1014.03 1014.54 1014.25 1013.82 1013.58 1013.71 1012.97 1013.24 1013.42 1013.33 1013.44 1013.74 1013.76 1013.82
Thickness
5715 5716 5717 5717 5717 5717 5717 5717 5717 5718 5719 5720 5722 5725 5727 5729 5731 5732 5734 5735 5736 5737 5738 5740 5741 5744 5747 5754 5761 5777 5779 5776 5775 5775 5772 5769 5765 5765 5756 5760 5763 5758 5752 5752 5752 5755 5761
5713 5715 5716 5717 5717 5716 5716 5717 5717 5718 5719 5722 5724 5726 5727 5728 5730 5732 5733 5734 5734 5735 5736 5737 5738 5740 5746 5749 5769 5769 5771 5771 5770 5769 5767 5769 5765 5767 5760 5758 5756 5751 5749 5745 5746 5747 5755
5712 5714 5714 5715 5716 5716 5716 5717 5717 5718 5719 5721 5723 5725 5726 5727 5729 5730 5731 5732 5733 5733 5734 5734 5735 5737 5742 5749 5762 5763 5765 5764 5766 5765 5761 5766 5770 5763 5761 5751 5758 5750 5740 5740 5737 5738 5743
5712 5712 5713 5714 5715 5715 5716 5717 5717 5718 5719 5720 5722 5724 5725 5726 5727 5729 5731 5731 5733 5733 5732 5732 5732 5734 5742 5758 5757 5757 5759 5756 5759 5762 5761 5765 5768 5763 5758 5759 5752 5741 5738 5727 5726 5730 5737
5710 5711 5712 5713 5714 5715 5716 5717 5717 5717 5718 5719 5721 5722 5724 5725 5727 5729 5730 5732 5735 5733 5731 5729 5731 5733 5740 5755 5750 5754 5756 5748 5749 5753 5756 5762 5759 5750 5752 5745 5736 5734 5718 5720 5715 5725 5727
5709 5710 5711 5712 5713 5715 5716 5716 5717 5717 5718 5718 5720 5721 5723 5724 5725 5727 5730 5731 5731 5730 5728 5728 5730 5731 5745 5740 5749 5748 5751 5749 5743 5743 5743 5742 5740 5736 5736 5741 5721 5724 5718 5718 5714 5715 5725
5708 5709 5710 5711 5712 5713 5715 5716 5717 5718 5718 5718 5720 5722 5723 5724 5725 5724 5728 5730 5733 5731 5730 5731 5732 5731 5738 5746 5749 5740 5744 5741 5739 5735 5725 5728 5727 5722 5734 5743 5740 5739 5725 5719 5715 5715 5723
5706 5707 5708 5710 5712 5713 5714 5715 5716 5717 5718 5719 5721 5722 5724 5724 5724 5724 5724 5733 5729 5727 5722 5732 5729 5730 5737 5740 5730 5733 5741 5726 5722 5714 5722 5719 5713 5730 5734 5734 5736 5731 5725 5718 5718 5719 5718
5705 5706 5708 5710 5712 5713 5714 5715 5716 5717 5718 5719 5720 5722 5723 5724 5724 5725 5728 5730 5730 5730 5720 5728 5732 5731 5735 5735 5727 5727 5732 5725 5716 5711 5715 5712 5719 5727 5729 5728 5724 5727 5728 5718 5718 5716 5715
5704 5705 5707 5709 5710 5712 5714 5715 5716 5717 5718 5719 5721 5722 5723 5725 5725 5725 5729 5730 5728 5726 5715 5717 5726 5732 5733 5734 5720 5735 5737 5729 5716 5708 5711 5714 5722 5724 5726 5726 5727 5718 5733 5728 5717 5717 5709
5702 5703 5706 5707 5708 5711 5713 5714 5715 5717 5719 5720 5721 5722 5723 5722 5729 5728 5728 5728 5727 5726 5680 5720 5723 5743 5732 5723 5723 5722 5736 5728 5711 5710 5712 5709 5712 5715 5718 5728 5729 5717 5731 5725 5721 5715 5714
5699 5701 5703 5705 5707 5708 5711 5713 5715 5717 5719 5721 5723 5723 5722 5722 5722 5729 5727 5727 5724 5706 5676 5708 5720 5716 5716 5716 5716 5720 5722 5729 5723 5713 5712 5715 5723 5725 5727 5730 5733 5725 5718 5716 5717 5712 5702
5696 5698 5700 5702 5704 5706 5708 5712 5714 5717 5720 5723 5725 5727 5723 5723 5731 5729 5728 5725 5703 5688 5707 5702 5704 5710 5707 5703 5707 5711 5705 5703 5700 5691 5693 5706 5713 5721 5727 5717 5725 5723 5714 5697 5695 5699 5707
5692 5694 5696 5698 5701 5703 5706 5709 5713 5717 5720 5724 5727 5727 5725 5726 5726 5727 5728 5712 5685 5697 5699 5710 5704 5705 5700 5702 5701 5703 5700 5695 5704 5703 5696 5692 5694 5712 5724 5725 5724 5720 5723 5709 5691 5696 5709
5687 5689 5691 5693 5696 5699 5703 5707 5711 5716 5720 5724 5727 5727 5727 5729 5726 5723 5719 5697 5693 5697 5705 5703 5703 5696 5696 5699 5699 5700 5695 5696 5702 5706 5693 5692 5698 5719 5724 5726 5728 5712 5708 5724 5713 5716 5714
5682 5683 5685 5688 5690 5694 5698 5703 5707 5714 5721 5723 5729 5730 5727 5726 5724 5723 5711 5687 5696 5702 5707 5706 5691 5691 5686 5691 5693 5696 5691 5702 5701 5708 5710 5701 5693 5713 5718 5726 5720 5722 5726 5704 5712 5694 5691
5676 5677 5679 5682 5685 5688 5692 5696 5701 5708 5718 5724 5728 5728 5724 5723 5723 5716 5697 5693 5697 5709 5706 5703 5694 5691 5689 5686 5688 5687 5687 5701 5703 5705 5709 5706 5699 5699 5715 5713 5715 5709 5712 5708 5713 5714 5711
5668 5671 5673 5675 5678 5681 5684 5689 5693 5699 5710 5719 5719 5716 5724 5724 5707 5686 5693 5692 5699 5707 5711 5706 5702 5695 5689 5684 5685 5686 5687 5694 5704 5705 5701 5702 5701 5697 5701 5714 5718 5723 5726 5723 5710 5706 5716
5661 5663 5665 5668 5670 5673 5676 5680 5684 5687 5690 5693 5705 5706 5718 5718 5695 5691 5691 5693 5699 5703 5700 5701 5693 5692 5687 5683 5678 5683 5687 5700 5702 5703 5698 5703 5693 5686 5693 5707 5715 5715 5717 5714 5714 5716 5717
5652 5654 5657 5659 5662 5664 5667 5671 5675 5679 5680 5684 5695 5701 5705 5702 5691 5692 5685 5688 5691 5700 5695 5694 5689 5690 5683 5680 5679 5678 5685 5694 5698 5696 5692 5699 5689 5688 5685 5693 5703 5702 5708 5709 5715 5712 5722
5642 5644 5647 5649 5652 5655 5658 5661 5665 5670 5673 5675 5685 5688 5684 5691 5687 5686 5681 5681 5686 5687 5693 5690 5684 5685 5682 5673 5674 5675 5680 5686 5691 5688 5690 5693 5679 5681 5690 5692 5694 5699 5701 5704 5704 5706 5704
5631 5633 5635 5639 5641 5644 5647 5649 5654 5659 5666 5672 5674 5674 5676 5678 5676 5680 5671 5681 5683 5685 5687 5683 5682 5681 5678 5672 5673 5671 5674 5674 5676 5685 5682 5683 5674 5673 5679 5687 5690 5688 5698 5700 5697 5699 5700
5619 5620 5623 5626 5630 5632 5635 5637 5639 5646 5653 5658 5655 5658 5660 5668 5672 5676 5680 5680 5681 5684 5685 5688 5685 5677 5671 5675 5677 5671 5671 5664 5667 5669 5671 5671 5671 5668 5664 5669 5679 5674 5688 5696 5694 5693 5699
5607 5609 5609 5612 5616 5619 5622 5625 5627 5630 5633 5632 5638 5642 5652 5663 5662 5674 5677 5678 5677 5680 5679 5681 5678 5673 5670 5670 5668 5668 5665 5661 5662 5656 5657 5660 5657 5656 5660 5661 5645 5674 5680 5684 5689 5687 5689
5597 5598 5598 5602 5604 5606 5607 5610 5613 5615 5618 5622 5623 5630 5638 5649 5655 5664 5670 5673 5678 5676 5676 5677 5678 5680 5671 5668 5656 5648 5651 5654 5653 5649 5648 5651 5652 5649 5647 5650 5655 5668 5675 5676 5681 5677 5684
5591 5590 5589 5592 5595 5597 5599 5600 5601 5602 5606 5610 5612 5614 5624 5633 5655 5659 5661 5667 5667 5668 5667 5668 5667 5670 5667 5657 5649 5637 5637 5640 5643 5646 5642 5644 5642 5649 5630 5633 5636 5659 5663 5670 5669 5665 5682
5587 5586 5584 5586 5588 5588 5589 5591 5592 5594 5598 5601 5606 5606 5613 5625 5647 5648 5651 5655 5659 5661 5665 5660 5659 5655 5658 5651 5643 5636 5632 5630 5633 5636 5637 5636 5633 5633 5631 5631 5647 5655 5658 5659 5645 5661 5679
5583 5583 5582 5584 5584 5584 5584 5584 5585 5588 5590 5593 5599 5599 5606 5617 5634 5643 5650 5650 5654 5656 5658 5656 5655 5653 5647 5644 5640 5633 5629 5627 5626 5631 5630 5631 5627 5626 5620 5621 5625 5648 5646 5646 5653 5659 5665
5580 5581 5580 5581 5581 5581 5581 5581 5582 5583 5585 5586 5590 5593 5595 5603 5626 5634 5642 5650 5652 5656 5651 5648 5656 5654 5653 5640 5627 5625 5625 5617 5626 5626 5619 5617 5632 5631 5630 5635 5637 5640 5644 5648 5647 5649 5654